User: anonymous   Login
Location: Baggettsville
(36.4767°N, 86.7303°W)
Time: 09:13:26
(UTC+00:00)
Language:

Feng Yun 1-1 Rocket - Orbit

View from above orbital plane
View from above orbital plane
View from above satellite
View from above satellite

Ground track
Ground track

The orbit data is extracted from the following two-line orbital elements,

1 19468U 88080B   21019.03909760 -.00000181  00000-0 -84400-4 0  9991
2 19468  99.2090  41.0205 0071691   6.3993  46.2117 14.03546703657311
Epoch (UTC): 19 January 2021 00:56:18
Eccentricity: 0.0071691
inclination: 99.2090°
perigee height: 829 km
apogee height: 933 km
right ascension of ascending node: 41.0205°
argument of perigee: 6.3993°
revolutions per day: 14.03546703
mean anomaly at epoch: 46.2117°
orbit number at epoch: 65731

The dashed part of the orbit path shows where the satellite is in the earth's shadow,  

DLR